Simultaneous Nadir Overpasses (SNOs) Predictions

Prediction of SNOs between METOP-A and TERRA Satellite Orbit:

Table of predicted SNOs for the next 14.0 days since TLE Epoch: 6/29/2019
Index Date (METOP-A) Time (METOP-A) Lat,Lon (METOP-A) SZA (METOP-A ) Date (TERRA) Time (TERRA) Lat,Lon (TERRA) SZA (TERRA ) Distance(km) Time Diff (sec)
1 06/29/2019 23:40:15 -81.45, 54.76 118.67 06/29/2019 23:40:26 -81.45, 54.92 118.65 2.83 11
2 06/30/2019 00:30:55 81.45,-137.45 61.39 06/30/2019 00:29:52 81.45,-137.30 61.38 2.44 63
3 07/02/2019 19:14:38 -81.45, 121.48 118.47 07/02/2019 19:14:41 -81.45, 121.43 118.47 0.82 3
4 07/02/2019 20:05:18 81.44, -70.75 61.59 07/02/2019 20:04:07 81.45, -70.83 61.55 1.51 71
5 07/05/2019 13:58:21 81.45, 20.22 61.72 07/05/2019 13:59:29 81.45, 20.21 61.75 0.54 68
6 07/05/2019 14:49:01 -81.45,-172.21 118.25 07/05/2019 14:48:56 -81.45,-172.18 118.25 0.67 5
7 07/08/2019 09:32:44 81.45, 86.89 62.03 07/08/2019 09:33:45 81.46, 86.83 62.06 1.18 61
8 07/08/2019 10:23:24 -81.45,-105.52 117.94 07/08/2019 10:23:12 -81.46,-105.52 117.95 1.14 12
9 07/11/2019 05:07:08 81.45, 153.14 62.34 07/11/2019 05:08:03 81.44, 152.95 62.34 3.37 55




NCC Satellite Simultaneous Nadir Overpasses (SNOs) Prediction Service
